Regional Weather Roundup
Issued by NWS

Home | Current Version | Previous Version | Text Only | Print | Product List | Glossary On
Versions: 1 2 3 4 5 6 7 8 9 10 11 12 13 14 15 16 17 18 19 20 21 22 23 24 25 26 27 28
000
ASUS44 KJAN 230510
RWRMS

MISSISSIPPI HOURLY WEATHER ROUNDUP
NATIONAL WEATHER SERVICE JACKSON MS
1200 AM CDT SUN JUL 23 2017

NOTE: "FAIR: INDICATES FEW OR NO CLOUDS BELOW 12,000 FEET WITH NO
SIGNIFICANT WEATHER AND/OR OBSTRUCTIONS TO VISIBILITY.

MSZ001>002-007>008-010>013-018>021-025>028-034>036-230600-
NORTHWEST MISSISSIPPI

CITY           SKY/WX    TMP DP  RH WIND       PRES   REMARKS
BATESVILLE     FAIR      77  72  84 SW6       29.94S
CLARKSDALE       N/A     77  77 100 S6        29.92F
CLEVELAND      FAIR      75  75 100 S6        29.93S
GREENWOOD      CLEAR     74  73  97 CALM      29.95R
GREENVILLE     CLEAR     74  73  97 SE5       29.93R
OXFORD         FAIR      77  73  88 S3        29.96S
TUNICA           N/A     77  72  83 S5        29.93S
WINONA         FAIR      75  75 100 CALM      29.95R
$$

MSZ003>006-009-014>017-022>024-029>033-037>039-230600-
NORTHEAST MISSISSIPPI

CITY           SKY/WX    TMP DP  RH WIND       PRES   REMARKS
COLUMBUS AFB   NOT AVBL
CORINTH        FAIR      73  72  94 CALM      29.94S
GOLDN TRIANGLE CLEAR     81  70  69 W5        29.92S
STARKVILLE     FAIR      77  72  83 CALM      29.97S
TUPELO         CLEAR     78  73  84 CALM      29.94S
$$

MSZ040-058-230600-
CENTRAL MISSISSIPPI

CITY           SKY/WX    TMP DP  RH WIND       PRES   REMARKS
JACKSON INTL   CLEAR     75  73  93 S3        29.97S
JACKSON HAWKNS CLEAR     75  75 100 CALM      29.97S
MADISON        FAIR      72  72 100 CALM      29.96S
MERIDIAN KEY   CLEAR     76  74  93 CALM      29.98S
MERIDIAN NAS   CLEAR     77  70  79 W3        29.97S
RAYMOND        FAIR      73  73 100 SE5       29.96S FOG
VICKSBURG VKS    N/A     75  73  94 CALM      29.93R
$$

MSZ059>079-230600-
SOUTH MISSISSIPPI

CITY           SKY/WX    TMP DP  RH WIND       PRES   REMARKS
COLUMBIA       FAIR      73  73 100 CALM      29.99F FOG
HATTIESBURG    MOCLDY    76  75  97 CALM      29.98F
LAUREL         FAIR      76  76 100 CALM      29.98S
MCCOMB         CLEAR     73  71  93 S3        29.97F FOG
NATCHEZ        NOT AVBL
PINE BELT      CLEAR     73  73 100 S3        29.99S FOG
$$

MSZ080>082-230600-
COASTAL MISSISSIPPI

CITY           SKY/WX    TMP DP  RH WIND       PRES   REMARKS
BILOXI         CLEAR     77  73  88 CALM      29.96F
PASCAGOULA     CLEAR     76  73  91 CALM      29.97F
GULFPORT       CLEAR     77  75  93 CALM      29.96F
$$

LAZ007>009-015>016-023>026-230600-
NORTHEAST LOUISIANA

CITY           SKY/WX    TMP DP  RH WIND       PRES   REMARKS
BASTROP        FAIR      74  74  98 S3        29.94S
TALLULAH/VBURG CLEAR     74  73  97 S3        29.95R FOG
VIDALIA        FAIR      75  74  98 CALM      29.95R
$$




USA.gov is the U.S. government's official web portal to all federal, state and local government web resources and services.